Probability
0 0 0 0 0 0 0 0 0 0 0 0 0 0 0 0 0 0 0 0 0 39 87 97 94 90 90 94 90 97 100 97 100 100 100 100 100 100 100 100 100 100 94 94 90 87 84 84 87
0 0 0 0 0 0 0 0 0 0 0 0 0 0 0 6 6 3 3 3 6 65 84 90 94 90 94 97 97 100 100 100 100 100 100 100 100 100 100 100 100 97 90 84 74 68 68 74 74
0 0 0 0 0 0 0 0 0 0 0 0 0 0 0 13 19 3 3 0 35 71 84 94 94 94 97 97 97 100 100 100 100 97 97 97 94 97 97 94 90 87 84 71 68 61 58 61 61
0 0 0 0 0 0 0 0 0 0 0 0 0 0 0 29 29 10 6 19 58 81 87 94 100 94 97 97 97 100 100 100 100 100 97 97 94 94 90 84 84 77 77 71 71 71 65 61 52
0 0 0 0 0 0 0 0 0 0 0 0 0 0 0 65 48 16 13 32 68 87 90 97 100 100 100 100 100 100 100 100 100 100 100 100 100 100 97 97 90 87 87 77 74 74 68 71 68
0 0 0 0 0 0 0 0 0 0 0 0 0 0 6 52 45 29 26 45 77 87 90 100 100 100 100 100 100 100 100 100 100 100 100 100 100 100 100 100 97 100 100 97 97 94 94 94 87
0 0 0 0 0 0 0 0 0 0 0 0 0 0 16 58 55 45 32 48 84 94 97 100 100 100 100 100 100 100 100 100 100 100 100 100 100 100 100 100 100 100 100 100 100 97 97 97 97
0 0 0 0 0 0 0 0 0 0 0 0 0 0 6 58 61 48 42 52 87 94 97 100 100 100 100 100 100 100 100 100 100 100 100 100 100 100 100 100 100 100 100 100 100 100 100 100 100
0 0 0 0 0 0 0 0 0 0 0 0 3 0 6 68 55 52 42 61 81 97 97 97 100 100 100 100 100 100 100 100 100 100 100 100 100 100 100 100 100 100 100 100 100 100 100 100 100
0 0 0 0 0 0 0 0 0 0 0 0 0 10 45 77 58 48 52 61 71 81 97 97 100 100 100 100 100 100 100 100 100 100 100 100 100 100 100 100 100 100 100 100 100 100 100 100 97
0 0 0 0 0 0 0 0 0 0 0 0 0 13 58 71 68 55 42 35 39 71 81 94 97 97 97 100 90 100 100 100 100 100 100 100 100 100 100 100 100 100 97 97 100 100 97 97 97
0 0 0 0 0 0 0 0 0 0 0 0 0 16 48 71 68 68 68 65 61 48 61 68 87 87 84 84 77 74 90 100 100 100 100 100 100 100 100 97 97 97 94 90 90 94 97 94 94
0 0 0 0 0 0 0 0 0 0 0 0 6 19 35 35 45 58 55 65 61 58 58 52 55 71 71 71 61 65 71 77 90 90 90 90 94 90 87 84 74 84 74 77 87 87 90 94 94
0 0 0 0 0 0 0 0 0 0 0 3 10 10 16 32 29 39 55 58 58 48 42 39 39 45 48 48 48 52 58 68 71 81 84 87 87 87 81 77 65 58 58 65 71 77 84 77 81
0 0 0 0 0 0 0 3 3 0 6 10 13 13 10 16 23 29 42 45 39 39 35 35 35 35 32 39 42 48 42 42 58 68 74 81 77 77 71 58 45 39 39 29 39 48 48 61 58
0 0 0 0 0 0 0 3 3 0 6 10 13 16 13 19 23 19 19 19 23 23 23 26 29 26 32 35 35 29 35 48 48 48 55 65 65 65 52 45 39 29 26 23 19 19 19 29 26
0 0 0 0 0 0 3 3 3 3 13 19 19 19 19 13 10 13 13 16 19 23 16 16 13 16 16 19 23 23 23 35 42 35 42 45 52 55 35 26 26 19 13 13 16 10 6 6 10
0 0 0 0 3 3 10 16 19 19 16 26 23 23 23 13 10 13 16 10 10 13 13 19 10 10 10 13 10 10 19 26 26 29 26 29 26 23 16 19 16 16 16 3 3 3 0 0 0
0 0 0 3 6 10 16 19 16 13 19 16 16 13 13 6 6 3 3 10 3 6 3 3 3 3 6 6 6 10 10 6 3 10 10 10 3 6 6 13 13 6 10 3 0 0 0 0 0
0 0 3 6 6 13 13 13 16 13 16 16 13 16 10 3 0 6 6 3 0 3 3 3 6 3 3 3 3 3 3 0 0 0 3 3 3 6 10 6 13 10 6 3 3 3 0 0 0
0 0 0 6 6 3 3 6 10 13 6 13 3 6 0 3 0 3 6 6 3 3 3 3 3 0 0 0 0 0 0 0 0 0 0 3 6 6 3 3 10 3 3 6 3 0 0 0 0
0 0 0 3 0 0 0 0 3 10 3 0 3 0 3 3 3 0 0 0 3 3 3 3 0 0 0 0 0 0 0 0 0 0 0 0 0 0 3 3 3 3 3 3 0 0 0 0 0
0 0 0 0 0 0 0 0 0 0 3 0 0 3 0 0 3 0 0 0 0 0 0 0 0 0 0 0 0 0 0 0 0 0 0 0 0 0 0 0 0 0 0 0 0 0 0 0 0
0 0 0 0 0 0 0 0 0 0 0 0 0 3 3 0 3 0 0 0 0 0 0 0 0 0 0 0 0 0 0 0 0 0 0 0 0 0 0 0 0 0 0 0 0 0 0 0 0
0 0 0 0 0 0 0 0 0 0 0 0 0 0 0 0 0 0 0 0 0 0 0 0 0 0 0 0 0 0 0 0 0 0 0 0 0 0 0 0 0 0 0 0 0 0 0 0 0
0 0 0 0 0 0 0 0 0 0 0 0 0 0 0 0 0 0 0 0 0 0 0 0 0 0 0 0 0 0 0 0 0 0 0 0 0 0 0 0 0 0 0 0 0 0 0 0 0
0 0 0 0 0 0 0 0 0 0 0 0 0 0 0 0 0 0 0 0 0 0 0 0 0 0 0 0 0 0 0 0 0 0 0 0 0 0 0 0 0 0 0 0 0 0 0 0 0
0 0 0 0 0 0 0 0 0 0 0 0 0 0 0 0 0 0 0 0 0 0 0 0 0 0 0 0 0 0 0 0 0 0 0 0 0 0 0 0 0 0 0 0 0 0 0 0 0
0 0 0 0 0 0 0 0 0 0 0 0 0 0 0 0 0 0 0 0 0 0 0 0 0 0 0 0 0 0 0 0 0 0 0 0 0 0 0 0 0 0 0 0 0 0 0 0 0
0 0 0 0 0 0 0 0 0 0 0 0 0 0 0 0 0 0 0 0 0 0 0 0 0 0 0 0 0 0 0 0 0 0 0 0 0 0 0 0 0 0 0 0 0 0 0 0 0
Height
5913 5913 5913 5913 5914 5913 5912 5911 5910 5909 5909 5909 5908 5908 5908 5909 5910 5912 5909 5907 5907 5906 5905 5904 5903 5902 5901 5900 5898 5897 5896 5895 5894 5894 5894 5893 5893 5893 5892 5892 5892 5891 5891 5891 5890 5890 5890 5890 5889
5913 5913 5914 5914 5914 5913 5913 5912 5910 5910 5910 5909 5909 5909 5909 5909 5909 5908 5907 5907 5906 5905 5904 5904 5903 5901 5900 5899 5897 5896 5895 5894 5894 5893 5893 5892 5892 5892 5891 5891 5891 5890 5890 5890 5890 5890 5890 5890 5889
5912 5913 5914 5914 5913 5913 5913 5912 5911 5910 5910 5909 5908 5908 5908 5908 5908 5907 5907 5906 5906 5905 5904 5903 5902 5900 5899 5898 5896 5895 5894 5894 5893 5892 5892 5891 5891 5891 5890 5890 5889 5889 5889 5889 5889 5889 5889 5889 5889
5912 5913 5913 5913 5912 5912 5912 5911 5911 5910 5910 5909 5908 5908 5907 5908 5907 5906 5906 5905 5904 5904 5903 5902 5900 5899 5898 5896 5895 5894 5893 5893 5892 5891 5891 5890 5889 5889 5889 5888 5888 5888 5888 5888 5888 5888 5888 5888 5888
5910 5911 5911 5911 5910 5910 5910 5910 5910 5909 5909 5908 5908 5907 5906 5906 5905 5905 5904 5904 5903 5902 5902 5900 5899 5898 5896 5895 5894 5893 5892 5891 5890 5890 5889 5888 5888 5887 5887 5886 5886 5886 5885 5885 5885 5886 5886 5886 5886
5908 5909 5909 5908 5908 5908 5908 5908 5908 5908 5907 5907 5906 5906 5905 5905 5904 5904 5903 5903 5902 5901 5900 5899 5898 5896 5895 5894 5892 5891 5890 5889 5888 5888 5887 5886 5886 5885 5884 5884 5883 5883 5883 5883 5883 5883 5883 5883 5883
5906 5906 5906 5906 5905 5905 5905 5905 5905 5905 5905 5905 5905 5904 5904 5903 5903 5903 5902 5901 5901 5900 5899 5897 5896 5894 5893 5892 5890 5889 5888 5887 5886 5885 5884 5884 5883 5882 5881 5881 5880 5880 5880 5879 5879 5879 5879 5879 5880
5902 5904 5903 5903 5902 5902 5902 5902 5902 5903 5903 5903 5902 5902 5902 5902 5901 5901 5900 5899 5899 5898 5896 5895 5894 5892 5891 5889 5888 5886 5885 5884 5883 5882 5881 5880 5879 5879 5878 5878 5877 5877 5876 5876 5876 5875 5875 5875 5876
5899 5900 5900 5899 5899 5899 5898 5899 5900 5900 5900 5900 5900 5900 5900 5899 5899 5899 5898 5897 5896 5895 5894 5892 5891 5889 5887 5886 5884 5883 5881 5880 5879 5878 5877 5876 5876 5875 5874 5874 5873 5873 5872 5872 5871 5871 5871 5871 5871
5895 5896 5897 5896 5895 5895 5895 5895 5896 5897 5897 5897 5897 5897 5896 5896 5896 5896 5895 5894 5893 5892 5890 5889 5887 5885 5884 5882 5880 5878 5877 5876 5875 5874 5873 5872 5871 5870 5870 5869 5868 5868 5868 5867 5867 5866 5866 5866 5866
5890 5892 5892 5892 5891 5891 5892 5893 5892 5893 5894 5894 5894 5893 5892 5893 5893 5892 5891 5890 5889 5887 5886 5884 5882 5881 5879 5877 5875 5873 5872 5870 5869 5868 5867 5866 5865 5865 5864 5864 5863 5863 5863 5862 5862 5862 5861 5862 5862
5886 5888 5888 5888 5888 5888 5889 5889 5889 5889 5889 5889 5889 5889 5889 5889 5889 5888 5887 5886 5884 5883 5881 5879 5877 5875 5873 5871 5870 5868 5866 5864 5863 5862 5861 5860 5860 5858 5858 5858 5858 5857 5857 5857 5856 5856 5856 5857 5857
5881 5883 5883 5884 5884 5883 5884 5884 5884 5884 5884 5884 5884 5884 5885 5884 5884 5884 5882 5881 5879 5877 5875 5873 5870 5868 5866 5864 5862 5860 5858 5856 5855 5854 5853 5853 5853 5852 5851 5851 5851 5850 5851 5851 5851 5851 5851 5851 5851
5877 5878 5879 5879 5879 5878 5879 5879 5879 5879 5879 5879 5879 5879 5879 5879 5879 5878 5877 5876 5874 5871 5869 5866 5863 5861 5858 5856 5853 5851 5849 5847 5846 5846 5845 5845 5845 5845 5845 5844 5845 5845 5844 5845 5845 5845 5845 5846 5847
5873 5874 5874 5873 5873 5873 5874 5874 5874 5874 5874 5874 5874 5874 5874 5874 5873 5873 5872 5870 5867 5864 5862 5859 5855 5853 5850 5847 5843 5841 5839 5837 5836 5836 5836 5836 5837 5837 5837 5838 5838 5838 5838 5838 5839 5839 5840 5840 5841
5869 5869 5869 5869 5869 5869 5871 5870 5870 5869 5870 5870 5869 5869 5869 5868 5867 5866 5865 5863 5860 5857 5854 5851 5847 5844 5841 5836 5833 5830 5828 5827 5826 5827 5827 5828 5828 5829 5829 5831 5831 5832 5832 5832 5833 5833 5834 5835 5836
5864 5865 5865 5865 5865 5865 5866 5865 5866 5865 5865 5865 5865 5864 5864 5863 5862 5860 5858 5856 5853 5849 5846 5843 5839 5835 5831 5827 5822 5819 5817 5817 5817 5817 5818 5819 5820 5821 5822 5823 5824 5825 5826 5826 5827 5828 5829 5830 5830
5861 5861 5861 5861 5861 5861 5861 5861 5861 5861 5861 5861 5860 5860 5859 5858 5856 5854 5851 5849 5845 5841 5838 5835 5831 5826 5823 5819 5815 5810 5809 5808 5808 5810 5810 5810 5812 5813 5814 5816 5817 5818 5818 5819 5821 5822 5823 5824 5825
5857 5857 5858 5858 5858 5858 5857 5857 5857 5857 5856 5856 5856 5855 5854 5853 5850 5847 5844 5841 5837 5834 5831 5828 5825 5820 5817 5813 5810 5807 5804 5802 5802 5802 5802 5803 5804 5805 5806 5808 5809 5811 5812 5813 5814 5815 5817 5818 5819
5855 5855 5854 5854 5854 5854 5853 5853 5853 5852 5852 5851 5851 5850 5848 5845 5843 5840 5837 5834 5831 5827 5824 5821 5818 5815 5812 5810 5807 5804 5801 5799 5798 5797 5797 5797 5798 5798 5800 5802 5803 5804 5805 5806 5807 5809 5810 5812 5813
5852 5852 5852 5851 5851 5850 5850 5849 5849 5848 5847 5846 5845 5843 5841 5838 5835 5832 5829 5826 5823 5820 5817 5815 5812 5810 5807 5805 5802 5800 5798 5796 5794 5793 5793 5793 5793 5793 5794 5795 5796 5798 5799 5799 5800 5802 5803 5805 5806
5850 5850 5850 5849 5848 5847 5847 5845 5845 5843 5842 5841 5838 5836 5834 5831 5828 5825 5822 5819 5816 5813 5810 5808 5806 5804 5801 5799 5797 5795 5792 5791 5789 5788 5787 5787 5786 5787 5787 5788 5789 5790 5791 5792 5793 5794 5795 5797 5799
5849 5848 5847 5846 5845 5844 5843 5842 5842 5840 5838 5835 5833 5830 5827 5824 5821 5818 5815 5812 5809 5807 5804 5801 5798 5796 5794 5791 5789 5787 5785 5783 5782 5781 5780 5779 5779 5779 5780 5780 5781 5782 5782 5783 5785 5786 5788 5790 5792
5847 5846 5845 5844 5843 5842 5840 5839 5838 5835 5833 5831 5828 5825 5822 5819 5816 5812 5809 5806 5803 5799 5796 5793 5790 5787 5784 5782 5779 5777 5775 5773 5772 5771 5770 5770 5770 5770 5770 5770 5771 5772 5773 5774 5775 5777 5779 5781 5783
5845 5845 5844 5842 5841 5840 5838 5836 5835 5832 5829 5827 5824 5820 5817 5814 5810 5807 5803 5799 5795 5791 5787 5784 5780 5776 5773 5770 5767 5765 5763 5761 5760 5758 5757 5757 5757 5757 5757 5758 5759 5760 5761 5763 5764 5766 5768 5770 5773
5843 5843 5842 5840 5838 5837 5835 5833 5832 5828 5825 5822 5819 5815 5812 5808 5804 5800 5795 5791 5787 5782 5777 5773 5768 5764 5761 5757 5754 5751 5748 5746 5744 5743 5742 5741 5741 5742 5742 5743 5744 5746 5748 5750 5752 5754 5756 5758 5761
5841 5840 5839 5837 5835 5833 5832 5830 5827 5824 5821 5817 5813 5810 5805 5801 5796 5792 5787 5782 5777 5772 5766 5761 5756 5752 5747 5743 5739 5735 5732 5729 5727 5725 5724 5723 5723 5724 5724 5725 5727 5729 5731 5734 5736 5739 5742 5745 5748
5839 5837 5836 5834 5831 5829 5828 5825 5823 5819 5815 5812 5807 5803 5798 5793 5788 5782 5776 5771 5765 5759 5753 5748 5742 5737 5732 5727 5723 5719 5715 5711 5708 5706 5705 5704 5703 5703 5704 5705 5707 5710 5713 5716 5719 5722 5725 5729 5733
5837 5835 5833 5830 5828 5826 5823 5823 5818 5814 5809 5805 5800 5795 5789 5783 5777 5771 5764 5757 5750 5743 5737 5731 5725 5719 5714 5708 5704 5700 5695 5692 5688 5686 5684 5682 5681 5681 5682 5684 5686 5688 5691 5695 5699 5703 5706 5711 5715
5834 5832 5830 5828 5825 5822 5819 5819 5812 5807 5803 5798 5792 5786 5780 5773 5765 5758 5750 5742 5735 5727 5720 5712 5706 5699 5693 5687 5683 5678 5675 5671 5668 5665 5662 5660 5659 5659 5659 5660 5663 5665 5668 5672 5676 5681 5686 5691 5696
Wind_Speed
6 6 5 5 4 4 3 2 3 3 4 4 4 3 2 3 5 5 6 7 8 8 8 9 9 9 9 8 8 7 6 6 5 5 5 5 6 6 6 6 6 6 6 6 6 6 5 5 4
8 8 7 7 6 5 4 3 3 3 4 4 3 2 2 4 5 6 7 8 9 9 10 10 11 11 10 10 9 8 8 7 7 7 6 6 6 7 7 7 7 6 6 6 6 5 5 4 3
10 9 9 8 8 7 6 5 4 3 4 4 4 4 5 6 6 8 8 10 10 11 11 12 12 12 12 11 10 10 9 9 9 9 9 8 8 8 8 8 8 8 7 7 7 6 6 5 4
12 12 12 11 10 9 7 6 7 6 5 6 6 5 6 7 8 9 10 11 12 12 13 14 14 14 13 12 12 11 11 11 11 11 11 11 11 11 11 11 10 10 10 9 9 8 8 7 6
15 15 15 14 13 11 11 10 9 9 9 7 6 6 6 7 9 10 11 12 13 14 15 15 15 14 13 13 13 13 13 13 13 14 14 14 13 13 13 13 13 13 12 12 12 11 11 10 9
18 18 18 17 16 15 15 14 13 11 11 10 9 8 8 8 10 11 12 12 14 15 16 16 15 15 14 15 15 15 15 15 16 16 16 16 16 16 16 16 16 16 16 15 15 14 13 13 12
21 20 20 20 20 19 19 17 15 14 13 12 11 10 9 9 10 11 11 12 13 15 16 16 17 17 16 16 16 17 17 17 17 18 18 18 18 18 19 19 19 19 18 18 18 17 17 16 15
23 22 22 22 23 22 22 21 19 17 15 14 13 12 11 11 10 11 11 12 14 16 17 18 19 19 19 19 19 18 18 18 19 19 19 20 20 20 20 21 20 20 20 20 20 20 19 19 18
24 24 23 23 25 25 25 23 21 19 17 15 15 15 14 13 12 12 13 14 16 18 19 21 21 22 22 22 21 21 20 20 20 20 20 21 22 22 22 22 21 21 21 21 21 21 21 20 20
24 24 23 25 27 28 26 26 24 23 21 18 17 17 16 15 15 15 16 17 19 20 22 23 24 25 26 25 24 24 23 22 22 22 22 22 22 22 22 22 22 22 21 21 21 21 21 21 21
25 24 24 27 29 29 28 28 28 27 25 22 21 20 18 18 18 19 20 21 22 22 23 25 27 28 29 29 28 27 26 25 24 24 24 23 23 23 23 23 23 23 22 21 21 21 21 22 22
25 23 24 26 29 30 30 30 30 30 28 27 25 23 22 22 22 23 23 24 24 25 26 28 30 31 32 33 32 31 30 28 27 27 26 26 26 25 25 25 25 24 23 22 22 22 22 22 22
25 24 24 25 28 31 32 33 33 32 32 31 29 29 28 26 26 27 27 26 27 28 29 31 33 34 35 36 36 35 35 34 31 30 29 28 28 28 27 27 27 26 25 24 23 22 22 21 21
25 23 23 25 28 31 33 35 35 34 34 33 32 32 31 31 29 29 29 30 30 30 31 33 35 37 38 39 38 37 38 36 35 33 31 30 29 29 28 27 27 27 26 24 22 22 21 21 20
23 22 23 25 27 30 32 33 35 35 35 35 34 34 33 33 31 31 32 31 31 32 34 36 36 38 40 40 39 39 41 40 38 35 33 32 31 30 30 28 28 27 25 23 22 21 21 20 19
22 22 23 24 26 28 30 31 31 32 33 34 34 34 34 33 32 32 32 32 34 35 36 37 38 40 40 41 41 42 42 40 37 36 35 34 32 31 30 28 28 27 25 23 21 21 21 20 20
22 22 22 24 26 27 28 29 29 29 29 30 30 31 31 30 31 32 32 33 36 37 38 38 38 39 40 41 41 40 39 38 36 35 33 34 32 31 29 28 27 26 25 22 21 21 21 21 20
20 21 22 23 25 26 26 26 26 26 26 27 28 28 29 30 32 33 34 36 38 39 38 39 38 38 38 38 36 31 32 30 29 30 30 30 31 29 28 28 27 26 24 22 23 23 22 22 21
19 20 20 22 23 24 25 24 23 23 24 25 27 28 30 32 34 36 37 37 38 39 38 37 35 33 33 31 30 26 23 22 23 25 25 25 26 26 27 27 27 26 24 23 23 23 23 23 23
18 18 18 19 20 21 21 22 22 23 24 25 27 29 31 34 36 38 39 38 38 37 36 33 33 31 30 29 28 26 25 23 22 21 21 22 23 24 24 25 25 25 24 24 24 24 24 24 24
15 15 16 17 18 19 20 21 21 23 24 26 28 30 33 34 35 36 36 36 36 36 33 32 31 30 30 30 29 27 26 24 24 23 23 24 24 24 24 25 26 26 26 25 25 26 26 26 25
13 14 15 16 18 19 20 21 21 22 24 26 28 29 30 30 31 31 30 31 33 33 32 31 31 31 31 31 30 30 29 28 27 27 27 27 27 27 27 27 28 28 28 28 28 28 28 28 28
11 12 13 14 15 16 17 19 19 21 23 24 24 25 26 28 28 28 29 30 32 32 33 33 33 33 34 34 34 34 33 32 32 31 31 31 30 30 30 30 31 31 31 31 31 30 30 30 30
10 11 12 12 13 13 14 16 17 18 20 20 22 23 24 25 25 27 29 30 32 33 35 35 36 37 38 38 38 38 38 38 38 37 36 36 36 36 36 36 36 35 35 34 34 34 33 33 33
9 10 11 11 11 12 13 14 15 17 19 21 23 24 25 27 28 30 31 32 34 36 38 39 40 40 41 42 43 43 43 43 43 43 43 42 42 43 42 42 41 40 40 40 39 38 38 37 37
10 11 12 13 13 12 13 14 16 18 20 22 24 26 28 29 31 32 34 35 37 38 40 41 42 44 45 46 47 48 48 48 48 48 49 48 48 48 48 48 48 47 46 46 45 44 43 43 42
10 12 14 16 15 15 16 16 17 19 22 24 27 29 31 33 34 36 37 38 39 41 42 43 45 46 47 48 49 50 51 52 53 53 54 54 54 54 54 53 53 53 52 51 51 50 49 48 47
11 13 14 15 17 18 18 18 20 22 25 28 31 33 35 36 38 39 40 42 43 44 45 46 47 48 49 50 51 52 52 53 55 56 57 58 58 59 59 59 58 58 57 56 56 56 54 54 53
12 14 15 17 18 20 21 21 23 26 29 32 34 36 38 39 41 43 45 47 48 49 50 51 52 53 53 53 52 53 53 54 55 56 57 59 60 61 61 61 61 61 61 60 60 60 60 58 57
13 14 16 18 19 20 23 25 27 30 32 34 37 39 40 42 45 47 49 51 52 54 55 56 56 56 55 55 54 53 53 52 52 53 53 54 55 58 59 61 62 62 63 63 63 63 63 63 62
Wind_Direction
207 215 218 219 235 268 322 358 13 27 40 38 43 49 22 343 330 311 293 290 291 296 300 304 307 311 316 321 325 328 331 332 335 337 338 338 340 340 342 347 351 354 356 1 5 10 17 25 30
221 231 234 237 252 277 300 309 324 351 2 358 2 16 5 340 326 312 299 296 295 298 300 300 301 303 307 310 311 314 315 314 314 315 315 315 315 316 318 321 327 331 333 337 342 346 349 352 357
231 238 241 248 261 276 292 293 296 308 314 320 329 336 337 335 323 317 309 304 302 301 300 297 297 298 301 302 303 305 306 305 305 303 302 301 301 300 301 303 307 310 312 316 318 320 323 321 315
238 240 245 252 260 265 275 278 275 270 274 293 309 320 323 322 321 316 312 308 306 302 299 295 295 296 297 298 299 299 299 298 297 296 295 294 293 292 292 293 295 298 300 300 301 302 302 302 299
242 244 249 252 254 262 269 271 264 261 261 275 292 299 312 314 314 314 312 310 308 304 300 296 295 296 296 296 297 296 295 293 292 291 291 290 289 288 287 288 289 290 292 293 292 292 292 291 288
246 249 251 254 255 259 263 267 265 260 260 270 280 287 302 309 311 314 314 311 308 305 302 299 297 296 296 295 295 294 292 291 289 288 288 287 286 285 284 284 285 285 285 287 287 287 286 285 281
248 251 253 255 258 260 261 264 264 265 263 271 275 281 291 299 307 311 314 312 308 306 303 300 298 298 296 294 293 292 291 289 287 285 284 283 283 282 281 281 281 281 281 281 282 282 281 280 278
252 251 251 253 257 260 264 265 267 269 271 277 278 278 283 291 300 308 310 309 307 303 299 298 298 297 296 293 290 289 288 287 286 285 284 283 282 281 281 280 280 279 278 278 278 278 277 276 275
256 253 250 249 253 257 262 266 269 271 274 282 283 284 289 295 298 302 303 302 302 300 296 296 295 293 291 289 287 286 285 284 284 284 284 284 283 282 281 281 280 279 278 277 276 276 275 274 273
258 255 251 248 251 255 260 266 271 273 277 282 285 286 289 290 295 298 301 302 301 297 293 292 292 289 286 284 283 282 282 281 282 282 283 283 283 283 282 281 280 279 278 276 275 275 275 274 273
259 257 252 247 251 255 258 264 271 275 279 282 282 281 281 285 290 295 300 299 298 294 290 290 290 288 285 281 279 278 278 277 278 279 280 280 280 280 281 281 280 279 277 275 273 271 271 271 271
261 258 253 249 251 254 258 262 267 273 277 279 279 280 283 287 291 294 295 295 295 294 291 290 289 286 286 282 278 276 274 273 273 274 275 277 278 278 279 279 279 277 276 274 272 270 268 268 268
260 258 254 249 248 251 255 259 264 269 273 275 277 278 280 281 286 290 291 293 294 292 290 290 288 285 281 281 277 273 273 271 267 268 269 271 274 275 276 276 276 275 274 273 272 269 271 270 269
259 257 255 251 248 250 252 256 261 266 269 272 274 276 278 281 284 285 288 291 291 292 293 292 288 287 284 283 278 273 272 270 265 265 266 266 267 271 274 273 274 273 272 271 270 269 269 267 266
257 256 252 249 248 250 253 256 258 263 267 269 271 274 276 278 281 285 287 288 287 288 290 290 290 291 290 288 282 276 274 267 263 262 263 263 264 267 270 272 272 272 269 268 268 267 266 264 262
255 254 251 251 250 252 255 257 260 263 266 268 270 272 274 276 280 283 286 287 290 292 292 291 296 297 297 296 290 282 278 273 264 262 262 261 263 264 267 269 269 270 268 265 264 263 262 260 258
255 252 251 250 252 254 257 260 263 266 266 267 269 272 274 276 279 282 285 289 293 294 294 295 298 299 299 301 295 287 277 271 266 264 265 263 261 263 267 266 265 265 263 261 261 258 257 256 254
255 254 253 252 253 257 261 265 267 266 265 266 269 271 274 277 279 283 287 290 292 293 294 298 299 300 300 302 298 288 276 272 269 266 266 266 263 263 264 264 263 261 258 259 257 254 253 251 250
258 259 259 257 259 261 264 267 269 269 270 271 273 276 279 281 282 284 287 289 291 294 296 298 298 302 304 303 303 298 288 282 279 273 267 267 268 264 260 262 262 260 257 255 255 254 250 248 247
261 264 266 265 267 268 269 269 270 272 276 277 278 280 282 284 284 286 288 288 291 292 296 298 300 302 303 303 304 304 301 296 291 284 272 268 268 264 260 260 263 263 260 256 256 255 250 249 248
267 271 272 274 277 276 276 275 277 279 282 283 284 284 286 287 287 289 288 288 288 292 295 296 298 298 299 300 300 298 297 295 292 287 278 274 272 270 266 265 266 264 261 258 255 254 251 249 247
278 280 280 278 281 283 283 282 282 285 288 288 288 287 288 289 289 291 292 292 293 294 295 295 294 294 294 295 295 293 294 294 291 286 282 276 273 272 269 268 267 265 262 259 256 255 251 249 246
284 291 292 292 291 288 288 288 290 291 292 293 294 295 296 296 296 293 292 293 294 294 294 294 293 291 291 292 292 291 290 289 287 284 281 277 274 270 267 267 266 263 261 258 257 255 252 250 247
290 299 306 308 304 300 298 296 296 296 296 297 300 301 304 305 304 301 297 298 298 297 296 295 293 291 291 291 290 289 287 285 283 280 277 273 270 268 267 266 264 262 259 257 256 255 253 251 250
301 306 312 313 312 308 306 304 303 301 300 301 304 305 306 306 304 304 302 302 300 298 296 295 294 292 292 291 290 287 285 282 280 277 274 271 268 266 265 263 262 260 258 257 256 254 253 251 250
300 304 311 317 317 314 307 306 306 304 304 306 307 308 309 309 307 306 304 303 301 298 297 296 295 293 292 291 289 287 285 282 279 277 274 271 268 265 263 261 259 258 257 255 254 253 252 251 250
303 306 312 312 313 312 309 307 306 306 307 309 310 311 311 310 309 308 306 304 303 301 299 297 295 294 293 291 289 286 284 281 279 276 274 271 268 265 263 260 258 257 255 254 253 251 250 249 249
312 316 318 318 316 316 315 313 313 311 311 312 313 313 313 312 311 310 309 308 306 305 303 301 299 296 294 292 290 287 284 281 279 276 273 270 268 265 263 261 259 256 254 252 251 250 248 247 246
320 320 319 317 316 316 316 317 316 315 316 316 316 315 314 314 314 314 313 312 310 309 307 306 304 302 300 297 294 291 288 285 282 279 276 272 269 266 263 261 259 257 254 252 250 248 247 246 245
319 319 318 318 318 317 318 319 319 318 318 317 317 317 317 318 318 317 316 315 314 313 311 310 308 306 304 302 300 297 294 291 287 284 280 276 271 266 263 260 258 256 254 252 250 248 246 245 244